Location: Goettingen
(51.5300°N, 9.9433°E)
Time: 18:31:07
(UTC+02:00)

ISS - Pass Details

Date: 15 May 2026
Orbit: 414 x 424 km, 51.6° (Epoch: 13 May)

Event Time Altitude Azimuth Distance (km) Brightness Sun altitude
Rises 23:21:14 0° 279° (W) 2,354 0.6 -15.1°
Reaches altitude 10° 23:23:19 10° 278° (W) 1,491 -0.5 -15.2°
Maximum altitude 23:26:39 78° 193° (SSW) 429 -3.9 -15.4°
Enters shadow 23:28:15 29° 110° (ESE) 802 -2.7 -15.6°
